KC9ZAR-13 Weather Reports


time (UTC)temp
C
wind
direction
speed
KPH
gust
KPH
rain 1hr
cm
rain 24hr
cm
rain mn
cm
humidity
%
barometer
mb
20260504042004 16 200 11.3 22.5 0.00 0.00 0.00 57 1009.1
20260504041005 16 193 11.3 22.5 0.00 0.00 0.00 57 1009.3
20260504040005 16 198 11.3 25.7 0.00 0.00 0.00 56 1009.2
20260504035505 16 187 11.3 20.9 0.00 0.00 0.00 56 1009.2
20260504035004 16 185 11.3 20.9 0.00 0.00 0.00 56 1009.3
20260504034504 16 185 11.3 22.5 0.00 0.00 0.00 56 1009.4
20260504034004 16 199 8.0 19.3 0.00 0.00 0.00 56 1009.6
20260504033505 16 182 11.3 19.3 0.00 0.00 0.00 56 1009.6
20260504033005 16 195 11.3 19.3 0.00 0.00 0.00 56 1009.6
20260504032004 16 179 9.7 24.1 0.00 0.00 0.00 56 1009.5
20260504031504 16 193 11.3 24.1 0.00 0.00 0.00 55 1009.6
20260504031004 16 181 11.3 24.1 0.00 0.00 0.00 55 1009.7
20260504030504 16 186 11.3 24.1 0.00 0.00 0.00 53 1009.8
20260504030004 16 192 9.7 24.1 0.00 0.00 0.00 53 1009.7
20260504025005 16 194 11.3 24.1 0.00 0.00 0.00 53 1009.8
20260504024505 16 201 11.3 22.5 0.00 0.00 0.00 53 1009.7
20260504024005 16 193 12.9 24.1 0.00 0.00 0.00 53 1009.4
20260504023004 16 191 12.9 22.5 0.00 0.00 0.00 53 1009.3
20260504022504 16 184 11.3 24.1 0.00 0.00 0.00 53 1009.5
20260504022004 16 183 9.7 20.9 0.00 0.00 0.00 53 1009.4
20260504021504 16 194 11.3 24.1 0.00 0.00 0.00 52 1009.4
20260504021005 16 191 11.3 24.1 0.00 0.00 0.00 52 1009.5
20260504020506 16 190 9.7 19.3 0.00 0.00 0.00 52 1009.5
20260504020006 16 188 11.3 19.3 0.00 0.00 0.00 52 1009.5
20260504015506 16 181 12.9 19.3 0.00 0.00 0.00 52 1009.6
20260504015006 17 196 9.7 19.3 0.00 0.00 0.00 52 1009.6
20260504014506 17 180 9.7 16.1 0.00 0.00 0.00 52 1009.6
20260504014006 17 187 9.7 19.3 0.00 0.00 0.00 52 1009.7
20260504012505 17 200 9.7 19.3 0.00 0.00 0.00 50 1009.7
20260504012006 17 185 8.0 14.5 0.00 0.00 0.00 50 1009.6
20260504011006 17 190 8.0 19.3 0.00 0.00 0.00 50 1009.7
20260504010505 17 190 11.3 19.3 0.00 0.00 0.00 50 1009.8
20260504010005 17 188 9.7 19.3 0.00 0.00 0.00 50 1009.8
20260504005505 17 187 11.3 16.1 0.00 0.00 0.00 50 1009.9
20260504005005 17 190 9.7 16.1 0.00 0.00 0.00 49 1009.9
20260504004506 17 203 8.0 16.1 0.00 0.00 0.00 50 1010.0
20260504004006 17 197 9.7 16.1 0.00 0.00 0.00 49 1010.1
20260504003506 17 200 9.7 19.3 0.00 0.00 0.00 49 1010.1
20260504003005 18 206 8.0 14.5 0.00 0.00 0.00 49 1010.2
20260504002506 18 195 9.7 19.3 0.00 0.00 0.00 49 1010.2
20260504002006 18 205 8.0 14.5 0.00 0.00 0.00 48 1010.3
20260504001506 18 196 8.0 16.1 0.00 0.00 0.00 48 1010.3
20260504000506 18 204 9.7 19.3 0.00 0.00 0.00 47 1010.3
20260504000005 18 189 12.9 20.9 0.00 0.00 0.00 46 1010.3
20260503235505 18 204 12.9 20.9 0.00 0.00 0.00 46 1010.4
20260503235006 18 201 9.7 20.9 0.00 0.00 0.00 46 1010.4
20260503234505 18 219 11.3 22.5 0.00 0.00 0.00 45 1010.4
20260503233506 18 197 16.1 24.1 0.00 0.00 0.00 45 1010.0
20260503233006 19 197 17.7 29.0 0.00 0.00 0.00 45 1009.9
20260503232506 19 193 12.9 24.1 0.00 0.00 0.00 45 1010.0
20260503231506 19 206 9.7 20.9 0.00 0.00 0.00 46 1010.1
20260503231006 19 217 11.3 20.9 0.00 0.00 0.00 46 1009.9
20260503225505 19 200 20.9 32.2 0.00 0.00 0.00 44 1010.2
20260503225005 19 208 16.1 32.2 0.00 0.00 0.00 45 1010.0
20260503224005 19 208 14.5 33.8 0.00 0.00 0.00 45 1010.1
20260503223506 19 189 16.1 33.8 0.00 0.00 0.00 45 1010.1
20260503223006 19 194 16.1 32.2 0.00 0.00 0.00 46 1010.1
20260503222505 19 209 17.7 32.2 0.00 0.00 0.00 45 1010.1
20260503222005 19 192 16.1 32.2 0.00 0.00 0.00 44 1010.2
20260503221505 19 199 17.7 35.4 0.00 0.00 0.00 46 1010.2
20260503221006 19 212 20.9 32.2 0.00 0.00 0.00 45 1010.5
20260503220506 19 199 22.5 35.4 0.00 0.00 0.00 45 1010.5
20260503220005 19 195 19.3 41.8 0.00 0.00 0.00 45 1010.7
20260503215506 19 203 17.7 32.2 0.00 0.00 0.00 45 1010.8
20260503214505 19 198 19.3 32.2 0.00 0.00 0.00 46 1010.9
20260503214005 19 203 14.5 32.2 0.00 0.00 0.00 47 1011.0
20260503213506 19 190 19.3 32.2 0.00 0.00 0.00 46 1011.1
20260503213006 19 178 14.5 40.2 0.00 0.00 0.00 46 1011.1
20260503212505 18 180 16.1 35.4 0.00 0.00 0.00 46 1011.2
20260503212005 18 198 12.9 37.0 0.00 0.00 0.00 46 1011.2
20260503211505 18 197 19.3 35.4 0.00 0.00 0.00 45 1011.6
20260503211006 18 192 22.5 35.4 0.00 0.00 0.00 45 1011.7
20260503210505 19 207 16.1 32.2 0.00 0.00 0.00 47 1011.9
20260503210006 19 208 20.9 32.2 0.00 0.00 0.00 46 1012.0
20260503205505 18 222 16.1 33.8 0.00 0.00 0.00 48 1012.1
20260503205006 18 219 19.3 29.0 0.00 0.00 0.00 47 1012.5
20260503204505 18 193 20.9 37.0 0.00 0.00 0.00 46 1012.6
20260503204005 18 206 16.1 32.2 0.00 0.00 0.00 47 1012.8
20260503203506 19 207 19.3 33.8 0.00 0.00 0.00 45 1012.8
20260503203006 19 215 14.5 27.4 0.00 0.00 0.00 47 1012.9
20260503202505 19 220 14.5 32.2 0.00 0.00 0.00 46 1013.1
20260503202005 19 197 14.5 32.2 0.00 0.00 0.00 46 1013.3
20260503201505 18 188 14.5 29.0 0.00 0.00 0.00 45 1013.3
20260503201005 19 220 11.3 22.5 0.00 0.00 0.00 46 1013.3
20260503200005 18 235 14.5 24.1 0.00 0.00 0.00 46 1013.1
20260503195506 18 200 17.7 27.4 0.00 0.00 0.00 45 1013.4
20260503195005 18 186 19.3 33.8 0.00 0.00 0.00 45 1013.6
20260503194005 18 210 19.3 29.0 0.00 0.00 0.00 46 1013.7
20260503193506 18 198 20.9 32.2 0.00 0.00 0.00 45 1013.7
20260503193006 18 210 19.3 33.8 0.00 0.00 0.00 46 1013.8
20260503192505 18 218 20.9 32.2 0.00 0.00 0.00 47 1013.9
20260503192005 18 203 14.5 37.0 0.00 0.00 0.00 49 1013.9
20260503191006 17 201 19.3 32.2 0.00 0.00 0.00 48 1014.1
20260503190005 17 170 17.7 29.0 0.00 0.00 0.00 47 1014.4
20260503185505 17 208 14.5 32.2 0.00 0.00 0.00 49 1014.6
20260503185005 17 213 14.5 32.2 0.00 0.00 0.00 49 1014.9
20260503184005 17 204 16.1 27.4 0.00 0.00 0.00 48 1015.0
20260503183505 17 209 11.3 22.5 0.00 0.00 0.00 50 1015.0
20260503183006 17 223 16.1 29.0 0.00 0.00 0.00 48 1015.3
20260503182006 17 218 11.3 20.9 0.00 0.00 0.00 49 1015.5
20260503181505 17 204 19.3 33.8 0.00 0.00 0.00 48 1015.7
20260503181006 17 210 12.9 27.4 0.00 0.00 0.00 50 1015.7
20260503180005 16 217 17.7 27.4 0.00 0.00 0.00 51 1015.9
20260503175505 17 230 14.5 25.7 0.00 0.00 0.00 51 1015.9
20260503175005 17 190 12.9 27.4 0.00 0.00 0.00 50 1016.0
20260503174005 17 209 11.3 19.3 0.00 0.00 0.00 50 1016.3
20260503173505 16 209 14.5 25.7 0.00 0.00 0.00 50 1016.3
20260503173005 16 208 14.5 29.0 0.00 0.00 0.00 52 1016.4
20260503172505 16 215 16.1 32.2 0.00 0.00 0.00 50 1016.5
20260503172005 16 229 19.3 33.8 0.00 0.00 0.00 50 1016.6
20260503171505 16 213 14.5 27.4 0.00 0.00 0.00 50 1016.8
20260503171005 16 234 12.9 24.1 0.00 0.00 0.00 50 1016.7
20260503170506 16 233 17.7 29.0 0.00 0.00 0.00 52 1016.8
20260503151005 14 209 11.3 25.7 0.00 0.00 0.00 57 1017.9
20260503150505 13 190 14.5 22.5 0.00 0.00 0.00 58 1017.9
20260503131005 10 211 11.3 16.1 0.00 0.00 0.00 67 1018.2
20260503130505 9 204 9.7 16.1 0.00 0.00 0.00 69 1018.2
20260503090504 2 355 0.0 0.0 0.00 0.00 0.00 89 1017.5
20260503081505 3 355 0.0 0.0 0.00 0.00 0.00 89 1017.3
20260503081005 3 355 0.0 0.0 0.00 0.00 0.00 89 1017.3
20260503080505 3 355 0.0 0.0 0.00 0.00 0.00 89 1017.3
20260503072505 3 355 0.0 0.0 0.00 0.00 0.00 89 1017.2
20260503072005 3 355 0.0 0.0 0.00 0.00 0.00 89 1017.3
20260503071505 3 355 0.0 0.0 0.00 0.00 0.00 88 1017.3
20260503071005 3 355 0.0 0.0 0.00 0.00 0.00 88 1017.3
20260503070505 3 355 0.0 0.0 0.00 0.00 0.00 88 1017.3
20260503055004 3 355 0.0 0.0 0.00 0.00 0.00 86 1017.7
20260503054504 3 355 0.0 0.0 0.00 0.00 0.00 86 1017.7
20260503054005 3 355 0.0 0.0 0.00 0.00 0.00 85 1017.7
20260503053004 3 355 0.0 0.0 0.00 0.00 0.00 85 1017.6
20260503052505 3 355 0.0 0.0 0.00 0.00 0.00 85 1017.6
20260503052005 3 355 0.0 0.0 0.00 0.00 0.00 85 1017.7
20260503051505 3 355 0.0 0.0 0.00 0.00 0.00 84 1017.7
20260503050004 4 355 0.0 0.0 0.00 0.00 0.00 84 1017.7
20260503045005 4 355 0.0 0.0 0.00 0.00 0.00 84 1017.7
20260503044005 4 355 0.0 0.0 0.00 0.00 0.00 83 1017.6
20260503043505 4 355 0.0 0.0 0.00 0.00 0.00 83 1017.6
20260503042504 5 355 0.0 0.0 0.00 0.00 0.00 82 1017.5